Flag for Canada Weather past 2 weeks in Whitehorse, Yukon Territory, Canada

Now
50 °F

Broken clouds.


Feels Like: 46 °F
Forecast: 44 / 58 °F
Wind: 10 mph from Southeast

Location: Withehorse

Current Time: Sep 19, 2014 at 9:38:00 PM

Latest Report: Sep 19, 2014 at 9:00 PM


Visibility: 40 mi

Pressure: 29.74 "Hg

Humidity: 62%

Dew point: 37 °F

Location of WhitehorseLocation

Historic Weather in Whitehorse — Graph

°F

Whitehorse temperature yesterday

Maximum temperature yesterday: 57 °F (at 3:00 PM)
Minimum temperature yesterday: 43 °F (at 7:00 AM)
Average temperature yesterday: 50 °F

Past Weeks' High & Low Weather Summary

 TemperatureHumidityPressure
High70 °F (Sep 14, 4:00 PM)100% (Sep 5, 7:00 AM)30.41 "Hg (Sep 5, 7:00 AM)
Low30 °F (Sep 9, 7:00 AM)27% (Sep 16, 6:00 PM)29.24 "Hg (Sep 18, 6:00 PM)
Average49 °F71%29.97 "Hg
* Reported Sep 4 8:00 PM — Sep 19 8:00 PM, Whitehorse, Weather by CustomWeather, © 2014

Note: Actual official high and low records may vary slightly from our data, if they occured in-between our weather recording intervals... More about our weather records

Advertising

Whitehorse weather history for previous 24 hours

 ConditionsComfort  
Time TempWeatherWind HumidityBarometerVisibility
8:00 PM
Sep 19
52 °FBroken clouds.9 mph58%29.72 "Hg40 mi
7:00 PM54 °FBroken clouds.21 mph54%29.69 "Hg40 mi
6:00 PM54 °FBroken clouds.12 mph54%29.66 "Hg40 mi
5:00 PM54 °FBroken clouds.12 mph54%29.64 "Hg40 mi
4:00 PM55 °FBroken clouds.18 mph47%29.62 "Hg40 mi
3:00 PM55 °FBroken clouds.20 mph51%29.58 "Hg40 mi
2:00 PM55 °FMostly cloudy.18 mph51%29.55 "Hg40 mi
1:00 PM55 °FPartly sunny.16 mph55%29.51 "Hg40 mi
12:00 PM52 °FBroken clouds.14 mph67%29.49 "Hg40 mi
11:00 AM48 °FBroken clouds.15 mph76%29.46 "Hg40 mi
10:00 AM48 °FScattered showers. Partly sunny.14 mph76%29.43 "Hg40 mi
9:00 AM46 °FBroken clouds.16 mph82%29.39 "Hg40 mi
8:00 AM46 °FScattered showers. Partly cloudy.16 mph82%29.36 "Hg40 mi
7:00 AM46 °FPartly cloudy.14 mph82%29.33 "Hg30 mi
6:00 AM46 °FPassing clouds.13 mph82%29.31 "Hg15 mi
5:00 AM46 °FPassing clouds.9 mph87%29.29 "Hg15 mi
4:00 AM48 °FPassing clouds.14 mph82%29.28 "Hg15 mi
3:00 AM48 °FPassing clouds.13 mph82%29.26 "Hg15 mi
2:00 AM48 °FPartly cloudy.14 mph87%29.26 "Hg15 mi
1:00 AM48 °FMostly cloudy.13 mph87%29.25 "Hg15 mi
12:00 AM50 °FOvercast.9 mph82%29.24 "Hg15 mi
11:00 PM
Sep 18
50 °FMostly cloudy.9 mph76%29.24 "Hg15 mi
10:50 PM48 °FPassing clouds.10 mph82%29.25 "Hg15 mi
10:00 PM50 °FLight rain. Mostly cloudy.10 mph76%29.25 "Hg15 mi
9:00 PM50 °FLight rain. Mostly cloudy.10 mph82%29.25 "Hg30 mi
Weather by CustomWeather, © 2014

See weather overviewHow to use our weather pages